This demonstration page uses our WeatherBlox Daily Observations layout. Learn more.

Left ArrowRight Arrow

Hourly Observations for August 23, 2022

Temp ( °F °C ) Dew Point ( °F °C ) Humidity (%) Winds ( mph kmh ) Pressure ( in mb ) Visibility ( mi km ) Precip ( " mm )
12:54 am 00:54 Clear 69 20.6 60 15.6 73 73 S 5 7 30.01 1016 10 16 0.00 0.00
1:54 am 01:54 Clear 66 18.9 59 15 78 78 SSE 6 9 30.00 1016 10 16 0.00 0.00
2:54 am 02:54 Clear 67 19.4 59 15 76 76 S 3 6 30.00 1016 10 16 0.00 0.00
3:54 am 03:54 Clear 61 16.1 57 13.9 87 87 Calm 30.00 1016 10 16 0.00 0.00
4:54 am 04:54 Clear 60 15.6 57 13.9 90 90 N 3 6 30.00 1016 10 16 0.00 0.00
5:54 am 05:54 Mostly Clear 60 15.6 57 13.9 90 90 NNW 3 6 30.00 1016 10 16 0.00 0.00
6:54 am 06:54 Sunny 60 15.6 56 13.3 86 86 Calm 30.01 1016 10 16 0.00 0.00
7:54 am 07:54 Sunny 64 17.8 60 15.6 87 87 Calm 30.01 1016 10 16 0.00 0.00
8:54 am 08:54 Sunny 70 21.1 60 15.6 71 71 Calm 30.02 1017 10 16 0.00 0.00
9:54 am 09:54 Sunny 76 24.4 63 17.2 64 64 SSW 5 7 30.02 1017 10 16 0.00 0.00
10:54 am 10:54 Sunny 82 27.8 64 17.8 55 55 SSW 5 7 30.01 1016 10 16 0.00 0.00
11:54 am 11:54 Sunny 86 30 60 15.6 42 42 SW 6 9 30.00 1016 10 16 0.00 0.00
12:54 pm 12:54 Sunny 88 31.1 59 15 38 38 SSE 7 11 29.98 1015 10 16 0.00 0.00
1:54 pm 13:54 Sunny 89 31.7 60 15.6 38 38 S 6 9 29.96 1015 10 16 0.00 0.00
2:54 pm 14:54 Sunny 92 33.3 60 15.6 35 35 WSW 8 13 29.95 1014 10 16 0.00 0.00
3:54 pm 15:54 Sunny 92 33.3 60 15.6 35 35 S 14 22 29.94 1014 10 16 0.00 0.00
4:54 pm 16:54 Sunny 91 32.8 61 16.1 37 37 S 9 15 29.93 1014 10 16 0.00 0.00
5:54 pm 17:54 Sunny 90 32.2 61 16.1 38 38 S 8 13 29.92 1013 10 16 0.00 0.00
6:54 pm 18:54 Sunny 88 31.1 61 16.1 41 41 SSW 13 20 29.91 1013 10 16 0.00 0.00
7:54 pm 19:54 Sunny 86 30 62 16.7 45 45 SW 7 11 29.92 1013 10 16 0.00 0.00
8:54 pm 20:54 Clear 81 27.2 63 17.2 54 54 SSW 7 11 29.94 1014 10 16 0.00 0.00
9:54 pm 21:54 Clear 78 25.6 63 17.2 60 60 SSW 6 9 29.96 1015 10 16 0.00 0.00
10:54 pm 22:54 Partly Cloudy 73 22.8 63 17.2 71 71 S 6 9 29.97 1015 10 16 0.00 0.00
11:54 pm 23:54 Mostly Clear 73 22.8 63 17.2 71 71 S 8 13 29.97 1015 10 16 0.00 0.00

Powered by AerisWeather